[[{"header":{"parameterUnit":"m.s-1","parameterCategory":1,"la1":30.2991,"la2":30.254,"lo1":-89.0895,"lo2":-89.0444,"dy":0.0017,"dx":0.0017,"nx":28,"ny":28,"refTime":"2025-11-21T03:00:00:Z","depth":0,"parameterNumber":2,"parameterNumberName":"U-component_of_WINDS"},"data":[0,0,0,0,0,0,0,0,0,0,0,0,0,0,0,0,0,0,0,0,0,0,0,0,0,0,0,0,0,0,0,0,0,0,0,0,0,0,0,0,0,0,0,0,0,0,0,0,0,0,0,0,0,0,0,0,0,0,1.4838,1.4839,0,1.4919,1.492,1.4921,1.4905,1.4904,1.4902,1.4901,1.4988,1.4992,1.4995,0,0,0,0,0,0,0,0,0,0,0,0,0,1.4673,1.4676,1.4838,1.4839,1.484,1.4919,1.492,1.4921,1.4906,1.4904,1.4902,1.49,1.4987,1.4991,1.4996,0,0,0,0,0,0,0,0,0,0,0,0,0,1.4749,1.4677,1.4838,1.4842,1.4843,1.4919,1.492,1.4922,1.4906,1.4904,1.4902,1.49,1.4985,1.4991,1.4996,1.5075,0,0,1.5013,1.5016,0,0,0,0,0,0,0,0,1.4744,1.4755,1.484,1.4842,1.4843,1.49,1.4894,1.4973,1.4907,1.4882,1.4901,1.4898,1.4961,1.4968,1.4988,1.5079,1.5082,1.5014,1.5017,1.5019,1.5021,0,0,0,0,0,0,0,1.4739,1.4751,1.487,1.4842,1.4843,1.4841,1.4849,1.4909,1.4933,1.4884,1.4883,1.4893,1.4961,1.4983,1.499,1.5084,1.5013,1.5018,1.5022,1.5024,1.5243,1.5245,0,0,0,0,0,0,1.4732,1.4747,1.4868,1.4873,1.4787,1.4845,1.4855,1.4884,1.4932,1.4937,1.4895,1.4892,1.4975,1.4984,1.4993,1.5089,1.5019,1.5025,1.5028,1.524,1.5243,1.5246,0,0,0,0,0,0,1.4729,1.4743,1.4865,1.481,1.4825,1.485,1.4884,1.4887,1.4909,1.494,1.4945,1.4912,1.4973,1.4986,1.5054,1.5091,1.5027,1.5032,1.5237,1.5241,1.5245,1.528,0,0,0,0,0,0,1.4724,1.4742,1.4771,1.481,1.4828,1.4923,1.4886,1.489,1.4918,1.4915,1.4958,1.4963,1.4973,1.5046,1.506,1.5098,1.5036,1.5234,1.5239,1.5243,1.5275,1.5284,1.5292,0,0,0,0,0,1.4718,1.4779,1.4773,1.4788,1.4865,1.4925,1.4936,1.4944,1.4921,1.4951,1.4971,1.4962,1.5085,1.5053,1.5069,1.5109,1.5232,1.5238,1.5243,1.5272,1.5282,1.5291,0,0,0,0,0,0,1.4745,1.4784,1.4778,1.4853,1.4886,1.4923,1.4961,1.4955,1.4996,1.4992,1.5002,1.5012,1.5082,1.5102,1.5066,1.5187,1.5155,1.5164,1.5172,1.5182,1.519,1.5184,1.5041,0,0,0,0,0,1.4759,1.4804,1.4836,1.4899,1.4916,1.4936,1.4962,1.4966,1.5001,1.5015,1.504,1.5076,1.5123,1.5153,1.5198,1.5278,1.5287,1.5313,1.5321,1.5328,1.5336,1.538,1.5392,1.5264,1.5264,1.5264,0,0,1.479,1.4817,1.4845,1.4905,1.4931,1.4978,1.4948,1.4999,1.5034,1.5024,1.509,1.5109,1.515,1.5224,1.5259,1.5243,1.5373,1.5335,1.534,1.5344,1.5387,1.5399,1.5409,1.5268,1.5268,1.5267,0,0,1.487,1.4894,1.495,1.4976,1.5015,1.5028,1.5041,1.5079,1.5091,1.5157,1.515,1.5193,1.5273,1.5302,1.5327,1.5417,1.541,1.5431,1.5475,1.5518,1.5528,1.5537,1.5569,1.5581,1.5439,1.5439,1.5439,0,1.4904,1.4974,1.4979,1.5031,1.5058,1.5049,1.5105,1.5131,1.5183,1.5203,1.5184,1.5284,1.5311,1.5392,1.5414,1.5435,1.5451,1.5427,1.5525,1.5534,1.5543,1.5574,1.5587,1.5442,1.5441,1.5441,1.5441,0,1.5013,1.5062,1.5102,1.5151,1.5183,1.5237,1.5251,1.5283,1.5283,1.5298,1.5366,1.5397,1.5448,1.5467,1.5469,1.5549,1.5538,1.5523,1.5491,1.5557,1.5587,1.5599,1.5445,1.5444,1.5443,1.5443,0,0,1.5114,1.5165,1.5179,1.5202,1.5244,1.5282,1.5335,1.5384,1.5411,1.5447,1.5493,1.556,1.5546,1.5575,1.5579,1.5617,1.5687,1.5596,1.5598,1.5613,1.5778,1.579,1.5804,1.5682,1.5684,1.5686,1.5775,0,1.5199,1.5292,1.5299,1.5384,1.5429,1.542,1.5467,1.5498,1.5513,1.5555,1.5572,1.562,1.5596,1.5614,1.565,1.567,1.572,1.5664,1.5726,1.5728,1.5717,1.5819,1.5833,1.5915,1.5786,1.5788,1.579,0,1.531,1.5348,1.5438,1.5473,1.5492,1.5534,1.5579,1.5618,1.5654,1.5662,1.5693,1.5692,1.5749,1.5714,1.5792,1.5753,1.5779,1.5793,1.5796,1.5803,1.5764,1.583,1.5941,1.5954,1.5808,1.5807,1.5805,0,1.5376,1.5449,1.5512,1.5532,1.5574,1.5604,1.5623,1.5656,1.5685,1.5724,1.5743,1.5789,1.5814,1.585,1.5862,1.5835,1.594,1.5906,1.5949,1.5949,1.5973,1.5972,1.6091,1.5988,1.5988,1.5987,1.5987,0,1.547,1.5526,1.5542,1.5581,1.5643,1.565,1.5711,1.5729,1.5758,1.5801,1.5796,1.5837,1.5849,1.5893,1.5902,1.5966,1.5977,1.5986,1.5989,1.5987,1.5986,1.6005,1.6,1.5991,1.599,1.5989,1.5989,0,1.5555,1.5568,1.5636,1.567,1.568,1.5724,1.5754,1.5792,1.5805,1.5859,1.5873,1.5895,1.5945,1.596,1.6021,1.6027,1.6102,1.6099,1.609,1.609,1.6133,1.6129,1.627,1.6289,1.6173,1.6174,1.6174,0,1.5615,1.5657,1.5695,1.5723,1.5743,1.5788,1.5816,1.5824,1.5855,1.5898,1.5931,1.598,1.602,1.6101,1.6123,1.617,1.6168,1.6214,1.6175,1.6173,1.617,1.6168,1.6172,1.6222,1.6223,1.6224,1.6225,0,1.572,1.5724,1.5765,1.5808,1.5842,1.5877,1.591,1.5934,1.5947,1.5981,1.6032,1.6062,1.6124,1.6173,1.622,1.6241,1.6236,1.6237,1.6249,1.6249,1.6243,1.6247,1.6111,1.6234,1.6233,1.6232,1.6232,1.6231,1.5795,1.5832,1.5864,1.591,1.5935,1.5967,1.6004,1.6021,1.6063,1.6113,1.6115,1.617,1.6205,1.6267,1.6291,1.6335,1.6321,1.634,1.6344,1.6349,1.6353,1.6234,1.6343,1.6343,1.6343,1.6342,1.6342,0,1.5901,1.5921,1.5963,1.6009,1.6045,1.6034,1.6071,1.6102,1.615,1.6182,1.6221,1.6279,1.6327,1.6352,1.6399,1.643,1.6428,1.6442,1.6441,1.6446,1.6362,1.6346,1.6442,1.6442,1.6442,1.6442,1.6442,1.6442,1.596,1.6022,1.603,1.6105,1.6125,1.6178,1.6199,1.6228,1.6254,1.6318,1.6357,1.6373,1.6402,1.6452,1.6495,1.6502,1.652,1.6535,1.654,1.6462,1.6452,1.6442,1.6427,1.6539,1.6539,1.6621,1.6621,1.6622]},{"header":{"parameterUnit":"m.s-1","parameterCategory":1,"la1":30.2991,"la2":30.254,"lo1":-89.0895,"lo2":-89.0444,"dy":0.0017,"dx":0.0017,"nx":28,"ny":28,"refTime":"2025-11-21T03:00:00:Z","depth":0,"parameterNumber":3,"parameterNumberName":"V-component_of_WINDS"},"data":[0,0,0,0,0,0,0,0,0,0,0,0,0,0,0,0,0,0,0,0,0,0,0,0,0,0,0,0,0,0,0,0,0,0,0,0,0,0,0,0,0,0,0,0,0,0,0,0,0,0,0,0,0,0,0,0,0,0,1.613,1.613,0,1.6216,1.6217,1.6218,1.6222,1.6221,1.622,1.6219,1.6306,1.6309,1.6312,0,0,0,0,0,0,0,0,0,0,0,0,0,1.5965,1.5968,1.6129,1.6131,1.6132,1.6216,1.6217,1.6218,1.6222,1.6221,1.622,1.6219,1.6305,1.6308,1.6312,0,0,0,0,0,0,0,0,0,0,0,0,0,1.6042,1.5969,1.6129,1.6144,1.6146,1.6215,1.6217,1.6218,1.6223,1.6221,1.622,1.6218,1.6303,1.6308,1.6313,1.6373,0,0,1.6328,1.633,0,0,0,0,0,0,0,0,1.6038,1.6048,1.6141,1.6143,1.6146,1.6207,1.6191,1.627,1.6223,1.6193,1.6219,1.6217,1.6274,1.6281,1.63,1.6377,1.638,1.6328,1.6331,1.6333,1.6334,0,0,0,0,0,0,0,1.6033,1.6045,1.6163,1.6142,1.6145,1.6145,1.6154,1.6206,1.6241,1.6196,1.6196,1.6207,1.6275,1.6296,1.6302,1.6382,1.6328,1.6332,1.6335,1.6337,1.6508,1.651,0,0,0,0,0,0,1.6025,1.604,1.6161,1.6166,1.6087,1.6149,1.616,1.6189,1.624,1.6247,1.6208,1.6207,1.6288,1.6297,1.6305,1.6377,1.6333,1.6338,1.634,1.6507,1.6509,1.651,0,0,0,0,0,0,1.6021,1.6036,1.6157,1.6103,1.6119,1.6154,1.6186,1.6191,1.6212,1.6249,1.6255,1.6223,1.6287,1.6299,1.6355,1.638,1.634,1.6344,1.6505,1.6507,1.6509,1.6522,0,0,0,0,0,0,1.6017,1.6034,1.6058,1.6104,1.6122,1.6207,1.6188,1.6194,1.622,1.622,1.6265,1.6271,1.6287,1.6348,1.636,1.6386,1.6348,1.6503,1.6506,1.6509,1.6519,1.6525,1.6529,0,0,0,0,0,1.6011,1.6059,1.606,1.6074,1.6153,1.6208,1.6218,1.6236,1.6223,1.6246,1.627,1.627,1.6376,1.6354,1.6368,1.6395,1.6501,1.6505,1.6508,1.6517,1.6524,1.6529,0,0,0,0,0,0,1.6015,1.6065,1.6067,1.6131,1.6165,1.6209,1.624,1.6243,1.6281,1.6279,1.6298,1.6309,1.6364,1.6386,1.6361,1.6454,1.6437,1.6443,1.6439,1.6445,1.6449,1.6443,1.6352,0,0,0,0,0,1.6024,1.6066,1.6107,1.6159,1.6176,1.6205,1.623,1.624,1.6277,1.6291,1.6319,1.6354,1.6394,1.6421,1.6461,1.6522,1.6531,1.6548,1.6553,1.6556,1.6562,1.6593,1.6601,1.6522,1.6522,1.6522,0,0,1.6042,1.6074,1.6099,1.6161,1.6189,1.623,1.6217,1.6263,1.6293,1.6298,1.6353,1.6374,1.6414,1.6473,1.65,1.6492,1.6585,1.6561,1.6564,1.6567,1.6598,1.6605,1.6612,1.6525,1.6525,1.6524,0,0,1.6096,1.6125,1.6171,1.6199,1.6241,1.626,1.627,1.6313,1.6328,1.6383,1.6387,1.6423,1.6494,1.6521,1.6544,1.6605,1.6606,1.6617,1.6642,1.6673,1.6679,1.6684,1.6704,1.6712,1.6623,1.6623,1.6623,0,1.6112,1.6176,1.6194,1.6239,1.6265,1.6271,1.6317,1.6343,1.6396,1.6413,1.6403,1.649,1.6517,1.6581,1.6596,1.6615,1.6627,1.6612,1.6677,1.6682,1.6688,1.6707,1.6715,1.6624,1.6624,1.6624,1.6623,0,1.6194,1.6238,1.627,1.632,1.635,1.6395,1.6418,1.6446,1.6453,1.6472,1.6527,1.6559,1.6605,1.6621,1.6629,1.6685,1.6679,1.6673,1.6655,1.6696,1.6714,1.6722,1.6625,1.6625,1.6625,1.6624,0,0,1.6254,1.6313,1.6324,1.6346,1.6392,1.6426,1.647,1.6514,1.6537,1.6572,1.6609,1.6667,1.6661,1.6687,1.6697,1.6725,1.6768,1.6715,1.6716,1.6723,1.6831,1.6834,1.6843,1.6769,1.6771,1.6772,1.6827,0,1.6312,1.6392,1.6408,1.6476,1.6516,1.6521,1.6559,1.659,1.6608,1.6643,1.6663,1.6703,1.6693,1.6709,1.6736,1.6757,1.679,1.6754,1.6802,1.6803,1.6791,1.6853,1.6857,1.6908,1.6834,1.6836,1.6836,0,1.6391,1.6428,1.65,1.6538,1.6555,1.659,1.663,1.6664,1.6699,1.671,1.6738,1.6745,1.6789,1.6769,1.6829,1.6804,1.6824,1.6838,1.684,1.6845,1.6822,1.6858,1.6924,1.6931,1.6848,1.6847,1.6847,0,1.6425,1.6493,1.6545,1.6563,1.661,1.6634,1.6654,1.6687,1.6712,1.6747,1.6763,1.6803,1.6825,1.6854,1.6871,1.6856,1.6929,1.6911,1.6938,1.6937,1.6953,1.6952,1.7023,1.6968,1.6968,1.6967,1.6967,0,1.6488,1.6531,1.656,1.6592,1.664,1.6658,1.6704,1.6724,1.6753,1.6788,1.6794,1.6826,1.6847,1.6881,1.6894,1.694,1.695,1.6959,1.6962,1.6958,1.6957,1.6971,1.6968,1.6969,1.6969,1.6969,1.6968,0,1.6535,1.6556,1.6612,1.6651,1.6662,1.6696,1.6728,1.6758,1.6776,1.6819,1.683,1.6857,1.6897,1.6917,1.6967,1.6975,1.7027,1.7029,1.7016,1.7017,1.7042,1.7039,1.7124,1.7135,1.7074,1.7074,1.7075,0,1.6573,1.6606,1.6648,1.6672,1.6693,1.6731,1.6756,1.6774,1.6799,1.684,1.6864,1.6905,1.6938,1.7002,1.7025,1.7063,1.7064,1.7091,1.707,1.7064,1.7063,1.706,1.7063,1.7095,1.7096,1.7096,1.7097,0,1.6637,1.6646,1.6682,1.6722,1.6751,1.6783,1.6814,1.6833,1.6855,1.6883,1.6925,1.6951,1.7001,1.704,1.7079,1.7099,1.7101,1.7103,1.7111,1.7107,1.7098,1.7101,1.7025,1.7101,1.7101,1.71,1.71,1.71,1.668,1.6709,1.6743,1.6782,1.6808,1.6836,1.6865,1.6886,1.6921,1.6964,1.6972,1.7015,1.7046,1.7099,1.7119,1.7152,1.7146,1.7158,1.7161,1.7163,1.7164,1.7093,1.7159,1.7159,1.7159,1.7159,1.7159,0,1.6743,1.6765,1.6801,1.6844,1.6875,1.6875,1.6909,1.6934,1.6972,1.7001,1.7034,1.708,1.7117,1.7143,1.7181,1.7202,1.7204,1.7211,1.7209,1.7213,1.7168,1.7157,1.7209,1.7209,1.7209,1.7209,1.7209,1.7209,1.678,1.6829,1.6841,1.6901,1.6922,1.6965,1.6984,1.7009,1.7033,1.7084,1.7116,1.7132,1.7159,1.7199,1.7233,1.7239,1.7252,1.7259,1.7265,1.7222,1.7217,1.7212,1.7201,1.7262,1.7262,1.7308,1.7308,1.7309]}]]